Flag for Switzerland Weather past 2 weeks in Altstätten, St. Gallen, Switzerland

Now
82 °F

Warm.


Feels Like: 82 °F
Forecast: 68 / 93 °F
Wind: 3 mph from Southwest

Location: Saint Gallen-Altenrhein

Current Time: Jul 4, 2015 at 11:30:20 PM

Latest Report: Jul 4, 2015 at 10:50 PM


Visibility: N/A

Pressure: 30.15 "Hg

Humidity: 45%

Dew point: 59 °F

Location of AltstättenLocation

Historic Weather in Altstätten — Graph

°F

Altstätten temperature yesterday

Maximum temperature yesterday: 91 °F (at 5:20 PM)
Minimum temperature yesterday: 66 °F (at 4:20 AM)
Average temperature yesterday: 79 °F

Past Weeks' High & Low Weather Summary

 TemperatureHumidityPressure
High91 °F (Jul 2, 5:50 PM)94% (Jun 20, 2:50 AM)30.30 "Hg (Jun 20, 2:50 AM)
Low50 °F (Jun 20, 1:50 PM)24% (Jun 26, 4:50 PM)29.71 "Hg (Jun 22, 10:50 PM)
Average67 °F67%30.13 "Hg
* Reported Jun 19 10:20 PM — Jul 4 10:20 PM, Altstätten, Weather by CustomWeather, © 2015

Note: Actual official high and low records may vary slightly from our data, if they occured in-between our weather recording intervals... More about our weather records

Advertising

Altstätten weather history for previous 24 hours

 ConditionsComfort  
Time TempWeatherWind HumidityBarometerVisibility
10:20 PM
Sat, Jul 4
82 °FClear.5 mph45%30.15 "HgN/A
9:50 PM82 °FSunny.3 mph55%30.15 "Hg10 mi
9:20 PM81 °FSunny.2 mph70%30.15 "Hg10 mi
8:50 PM84 °FSunny.1 mph66%30.12 "Hg10 mi
8:20 PM86 °FSunny.3 mph62%30.12 "Hg10 mi
7:50 PM90 °FSunny.2 mph52%30.12 "Hg10 mi
7:20 PM88 °FSunny.2 mph55%30.12 "Hg10 mi
6:50 PM90 °FSunny.2 mph46%30.15 "Hg10 mi
6:20 PM90 °FPassing clouds.3 mph43%30.15 "HgN/A
5:50 PM91 °FSunny.2 mph34%30.15 "Hg10 mi
5:20 PM91 °FPassing clouds.5 mph38%30.15 "HgN/A
4:50 PM90 °FSunny.5 mph33%30.15 "Hg10 mi
4:20 PM90 °FPassing clouds.5 mph41%30.18 "HgN/A
3:50 PM90 °FSunny.6 mph41%30.18 "Hg10 mi
3:20 PM90 °FSunny.6 mph38%30.18 "Hg10 mi
2:50 PM90 °FPassing clouds.6 mph38%30.18 "HgN/A
2:20 PM90 °FPassing clouds.5 mph38%30.18 "HgN/A
1:50 PM88 °FSunny.5 mph46%30.21 "Hg10 mi
1:20 PM86 °FSunny.3 mph55%30.21 "Hg10 mi
12:50 PM86 °FPassing clouds.5 mph49%30.21 "HgN/A
12:20 PM86 °FSunny.3 mph52%30.21 "Hg10 mi
11:50 AM82 °FSunny.3 mph66%30.21 "Hg10 mi
11:20 AM82 °FSunny.1 mph62%30.21 "Hg10 mi
10:50 AM79 °FSunny.3 mph70%30.21 "Hg10 mi
10:20 AM79 °FSunny.3 mph70%30.21 "Hg10 mi
9:50 AM79 °FSunny.1 mph70%30.21 "Hg10 mi
9:20 AM77 °FSunny.2 mph69%30.21 "Hg10 mi
8:50 AM75 °FSunny.3 mph74%30.21 "Hg10 mi
8:20 AM75 °FSunny.2 mph74%30.21 "Hg10 mi
7:50 AM75 °FSunny.1 mph74%30.21 "Hg10 mi
7:20 AM72 °FSunny.2 mph88%30.21 "Hg10 mi
6:50 AM70 °FSunny.1 mph88%30.21 "Hg10 mi
6:20 AM68 °FClear.1 mph88%30.21 "Hg10 mi
5:50 AM66 °FClear.2 mph88%30.21 "Hg10 mi
5:20 AM66 °FClear.2 mph88%30.18 "Hg10 mi
4:50 AM68 °FClear.2 mph88%30.18 "Hg10 mi
4:20 AM70 °FClear.1 mph83%30.18 "Hg10 mi
3:50 AM72 °FClear.2 mph83%30.18 "Hg10 mi
3:20 AM73 °FClear.2 mph74%30.18 "Hg10 mi
2:50 AM72 °FPassing clouds.6 mph83%30.18 "HgN/A
2:20 AM73 °FClear.3 mph74%30.18 "Hg10 mi
1:50 AM70 °FClear.2 mph83%30.18 "Hg10 mi
1:20 AM70 °FMild.2 mph83%30.21 "HgN/A
12:50 AM72 °FClear.2 mph78%30.21 "HgN/A
12:20 AM73 °FClear.1 mph74%30.21 "HgN/A
11:50 PM
Fri, Jul 3
73 °FClear.3 mph78%30.21 "Hg10 mi
11:20 PM73 °FClear.1 mph74%30.21 "Hg10 mi
Weather by CustomWeather, © 2015

See weather overviewHow to use our weather pages